QPF
0.00 0.00 0.00 0.00 0.00 0.00 0.00 0.00 0.00 0.00 0.00 0.00 0.00 0.00 0.00 0.00 0.00 0.00 0.00 0.00 0.00 0.00 0.00 0.00 0.00 0.00 0.00 0.00 0.00 0.00 0.00 0.00 0.00 0.00 0.00 0.00 0.00 0.00 0.00 0.00 0.00 0.00 0.00
0.00 0.00 0.00 0.00 0.00 0.00 0.00 0.00 0.00 0.00 0.00 0.00 0.00 0.00 0.00 0.00 0.00 0.00 0.00 0.00 0.00 0.00 0.00 0.00 0.00 0.00 0.00 0.00 0.00 0.00 0.00 0.00 0.00 0.00 0.00 0.00 0.00 0.00 0.00 0.00 0.00 0.00 0.00
0.00 0.00 0.00 0.00 0.00 0.00 0.00 0.00 0.00 0.00 0.00 0.00 0.00 0.00 0.00 0.00 0.00 0.00 0.00 0.00 0.00 0.00 0.00 0.00 0.00 0.00 0.00 0.00 0.00 0.00 0.00 0.00 0.00 0.00 0.00 0.00 0.00 0.00 0.00 0.00 0.00 0.00 0.00
0.00 0.00 0.00 0.00 0.00 0.00 0.00 0.00 0.00 0.00 0.00 0.00 0.00 0.00 0.00 0.00 0.00 0.00 0.00 0.00 0.00 0.00 0.00 0.00 0.00 0.00 0.00 0.00 0.00 0.00 0.00 0.00 0.00 0.00 0.00 0.00 0.00 0.00 0.00 0.00 0.00 0.00 0.00
0.00 0.00 0.00 0.00 0.00 0.00 0.00 0.00 0.00 0.00 0.00 0.00 0.00 0.00 0.00 0.00 0.00 0.00 0.00 0.00 0.00 0.00 0.00 0.00 0.00 0.00 0.00 0.00 0.00 0.00 0.00 0.00 0.00 0.00 0.00 0.00 0.00 0.00 0.00 0.00 0.00 0.00 0.00
0.00 0.00 0.00 0.00 0.00 0.00 0.00 0.00 0.00 0.00 0.00 0.00 0.00 0.00 0.00 0.00 0.00 0.00 0.00 0.00 0.00 0.00 0.00 0.00 0.00 0.00 0.00 0.00 0.00 0.00 0.00 0.00 0.00 0.00 0.00 0.00 0.00 0.00 0.00 0.00 0.00 0.00 0.00
0.00 0.00 0.00 0.00 0.00 0.00 0.00 0.00 0.00 0.00 0.00 0.00 0.00 0.00 0.00 0.00 0.00 0.00 0.00 0.00 0.00 0.00 0.00 0.00 0.00 0.00 0.00 0.00 0.00 0.00 0.00 0.00 0.00 0.00 0.00 0.00 0.00 0.00 0.00 0.00 0.00 0.00 0.00
0.00 0.00 0.00 0.00 0.00 0.00 0.00 0.00 0.00 0.00 0.00 0.00 0.00 0.00 0.00 0.00 0.00 0.00 0.00 0.00 0.00 0.00 0.00 0.00 0.00 0.00 0.00 0.00 0.00 0.00 0.00 0.00 0.00 0.00 0.03 0.09 0.14 0.10 0.07 0.07 0.05 0.03 0.01
0.00 0.00 0.00 0.00 0.00 0.00 0.00 0.00 0.00 0.00 0.00 0.00 0.00 0.00 0.00 0.00 0.00 0.00 0.00 0.00 0.00 0.00 0.00 0.00 0.00 0.00 0.00 0.00 0.00 0.00 0.00 0.00 0.04 0.09 0.11 0.08 0.09 0.10 0.10 0.10 0.09 0.09 0.09
0.00 0.01 0.01 0.02 0.02 0.02 0.01 0.02 0.01 0.00 0.00 0.00 0.00 0.00 0.00 0.00 0.00 0.00 0.00 0.00 0.00 0.00 0.00 0.00 0.00 0.00 0.00 0.00 0.00 0.00 0.00 0.00 0.02 0.04 0.08 0.07 0.06 0.06 0.06 0.07 0.07 0.07 0.09
0.07 0.16 0.10 0.03 0.03 0.06 0.03 0.02 0.02 0.02 0.01 0.00 0.00 0.00 0.00 0.00 0.00 0.00 0.00 0.00 0.00 0.00 0.00 0.00 0.00 0.00 0.00 0.00 0.00 0.00 0.01 0.01 0.02 0.07 0.10 0.08 0.07 0.06 0.06 0.06 0.07 0.08 0.10
0.10 0.06 0.09 0.12 0.12 0.04 0.05 0.04 0.02 0.00 0.00 0.00 0.00 0.00 0.00 0.00 0.00 0.00 0.00 0.00 0.01 0.01 0.00 0.00 0.00 0.00 0.00 0.00 0.00 0.00 0.00 0.01 0.03 0.05 0.05 0.06 0.08 0.08 0.08 0.08 0.08 0.08 0.08
0.01 0.04 0.03 0.02 0.01 0.01 0.01 0.01 0.00 0.00 0.00 0.00 0.00 0.00 0.01 0.01 0.02 0.01 0.01 0.01 0.01 0.01 0.00 0.00 0.00 0.00 0.00 0.00 0.00 0.00 0.00 0.01 0.01 0.01 0.03 0.05 0.07 0.08 0.09 0.06 0.03 0.02 0.03
0.00 0.00 0.00 0.00 0.00 0.00 0.00 0.00 0.00 0.00 0.00 0.00 0.00 0.00 0.00 0.00 0.00 0.01 0.01 0.01 0.02 0.02 0.01 0.00 0.00 0.00 0.00 0.00 0.00 0.00 0.00 0.00 0.00 0.01 0.02 0.03 0.04 0.02 0.01 0.00 0.00 0.00 0.01
0.00 0.00 0.00 0.00 0.00 0.00 0.00 0.00 0.00 0.00 0.00 0.00 0.00 0.00 0.00 0.00 0.00 0.00 0.00 0.00 0.00 0.00 0.00 0.00 0.00 0.00 0.00 0.00 0.00 0.00 0.00 0.00 0.00 0.01 0.01 0.01 0.01 0.00 0.00 0.00 0.00 0.00 0.00
0.00 0.00 0.00 0.00 0.00 0.00 0.00 0.00 0.00 0.00 0.00 0.00 0.00 0.00 0.00 0.00 0.00 0.00 0.00 0.00 0.00 0.00 0.00 0.00 0.00 0.00 0.00 0.00 0.00 0.00 0.00 0.00 0.01 0.00 0.00 0.00 0.00 0.00 0.00 0.00 0.00 0.00 0.00
0.00 0.00 0.00 0.00 0.00 0.00 0.00 0.00 0.00 0.00 0.00 0.00 0.00 0.00 0.00 0.00 0.00 0.00 0.00 0.00 0.00 0.00 0.00 0.00 0.00 0.00 0.00 0.00 0.00 0.00 0.00 0.00 0.00 0.01 0.00 0.00 0.00 0.00 0.00 0.00 0.00 0.00 0.00
0.00 0.00 0.00 0.00 0.00 0.00 0.00 0.00 0.00 0.00 0.00 0.00 0.00 0.00 0.00 0.00 0.00 0.00 0.00 0.00 0.00 0.00 0.00 0.00 0.00 0.00 0.00 0.00 0.00 0.00 0.00 0.00 0.00 0.00 0.00 0.00 0.00 0.00 0.00 0.00 0.00 0.00 0.00
0.00 0.00 0.00 0.00 0.00 0.00 0.00 0.00 0.00 0.00 0.00 0.00 0.00 0.00 0.00 0.00 0.00 0.00 0.00 0.00 0.00 0.00 0.00 0.00 0.00 0.00 0.00 0.00 0.00 0.00 0.00 0.00 0.00 0.00 0.00 0.00 0.00 0.00 0.00 0.00 0.00 0.00 0.00
0.00 0.00 0.00 0.00 0.00 0.00 0.00 0.00 0.00 0.00 0.00 0.00 0.00 0.00 0.00 0.00 0.00 0.00 0.00 0.00 0.00 0.00 0.00 0.00 0.00 0.00 0.00 0.00 0.00 0.00 0.00 0.00 0.00 0.00 0.00 0.00 0.00 0.00 0.00 0.00 0.00 0.00 0.00
0.00 0.00 0.00 0.00 0.00 0.00 0.00 0.00 0.00 0.00 0.00 0.00 0.00 0.00 0.00 0.00 0.00 0.00 0.00 0.00 0.00 0.00 0.00 0.00 0.00 0.00 0.00 0.00 0.00 0.00 0.00 0.00 0.00 0.00 0.00 0.00 0.00 0.00 0.00 0.00 0.00 0.00 0.00
0.00 0.00 0.00 0.00 0.00 0.00 0.00 0.00 0.00 0.00 0.00 0.00 0.00 0.00 0.00 0.00 0.00 0.00 0.00 0.00 0.00 0.00 0.00 0.00 0.00 0.00 0.00 0.00 0.00 0.00 0.00 0.00 0.00 0.00 0.00 0.00 0.00 0.00 0.00 0.00 0.00 0.00 0.00
0.00 0.00 0.00 0.00 0.00 0.00 0.00 0.00 0.00 0.00 0.00 0.00 0.00 0.00 0.00 0.00 0.00 0.00 0.00 0.00 0.00 0.00 0.00 0.00 0.00 0.00 0.00 0.00 0.00 0.00 0.00 0.00 0.00 0.00 0.00 0.00 0.00 0.00 0.00 0.00 0.00 0.00 0.00
0.00 0.00 0.00 0.00 0.00 0.00 0.00 0.00 0.00 0.00 0.00 0.00 0.00 0.00 0.00 0.00 0.00 0.00 0.00 0.00 0.00 0.00 0.00 0.00 0.00 0.00 0.00 0.00 0.00 0.00 0.00 0.00 0.00 0.00 0.00 0.00 0.00 0.00 0.00 0.00 0.00 0.00 0.00
0.00 0.00 0.00 0.00 0.00 0.00 0.00 0.00 0.00 0.00 0.00 0.00 0.00 0.00 0.00 0.00 0.00 0.00 0.00 0.00 0.00 0.00 0.00 0.00 0.00 0.00 0.00 0.00 0.00 0.00 0.00 0.00 0.00 0.00 0.00 0.00 0.00 0.00 0.00 0.00 0.00 0.00 0.00
0.00 0.00 0.00 0.00 0.00 0.00 0.00 0.00 0.00 0.00 0.00 0.00 0.00 0.00 0.00 0.00 0.00 0.00 0.00 0.00 0.00 0.00 0.00 0.00 0.00 0.00 0.00 0.00 0.00 0.00 0.00 0.00 0.00 0.00 0.00 0.00 0.00 0.00 0.00 0.00 0.00 0.00 0.00
MSLP
1020.42 1020.74 1020.95 1021.28 1021.63 1021.94 1022.26 1022.55 1022.67 1022.87 1023.10 1023.28 1023.49 1023.62 1023.73 1023.89 1023.96 1024.02 1024.08 1024.05 1024.05 1024.14 1024.26 1024.44 1024.65 1024.82 1024.99 1025.22 1025.40 1025.56 1025.77 1025.95 1025.97 1026.01 1026.13 1026.24 1026.20 1026.29 1026.30 1026.13 1026.02 1025.87 1025.78
1020.33 1020.64 1020.97 1021.33 1021.68 1021.97 1022.26 1022.44 1022.64 1022.84 1023.06 1023.23 1023.38 1023.53 1023.64 1023.69 1023.76 1023.90 1024.00 1024.07 1024.03 1024.13 1024.26 1024.33 1024.52 1024.76 1024.99 1025.20 1025.49 1025.79 1025.98 1026.09 1026.26 1026.36 1026.37 1026.40 1026.57 1026.58 1026.53 1026.53 1026.43 1026.25 1026.06
1020.09 1020.42 1020.81 1021.19 1021.46 1021.82 1022.22 1022.51 1022.70 1022.91 1023.17 1023.27 1023.35 1023.38 1023.50 1023.56 1023.67 1023.70 1023.78 1023.94 1024.00 1024.00 1024.15 1024.17 1024.32 1024.58 1024.85 1025.08 1025.38 1025.71 1025.97 1026.14 1026.25 1026.44 1026.52 1026.64 1026.65 1026.62 1026.62 1026.61 1026.59 1026.54 1026.40
1019.78 1020.20 1020.61 1020.88 1021.19 1021.67 1022.09 1022.38 1022.62 1023.00 1023.22 1023.33 1023.30 1023.28 1023.30 1023.42 1023.50 1023.56 1023.62 1023.78 1023.88 1023.99 1023.99 1024.04 1024.09 1024.24 1024.58 1024.83 1025.03 1025.38 1025.75 1026.06 1026.26 1026.35 1026.47 1026.57 1026.70 1026.76 1026.71 1026.67 1026.63 1026.55 1026.42
1019.47 1019.86 1020.18 1020.46 1020.95 1021.43 1021.82 1022.11 1022.57 1022.91 1023.11 1023.22 1023.21 1023.15 1023.11 1023.28 1023.35 1023.36 1023.49 1023.61 1023.69 1023.83 1024.03 1024.03 1024.02 1024.15 1024.31 1024.56 1024.77 1024.93 1025.26 1025.73 1026.22 1026.56 1026.71 1026.75 1026.77 1026.85 1026.87 1026.77 1026.67 1026.61 1026.45
1019.02 1019.46 1019.79 1020.15 1020.66 1021.22 1021.65 1022.03 1022.37 1022.64 1022.88 1023.06 1023.20 1023.08 1023.05 1023.03 1023.18 1023.21 1023.21 1023.28 1023.42 1023.60 1023.74 1023.94 1024.06 1024.12 1024.15 1024.23 1024.36 1024.50 1024.68 1025.15 1025.73 1026.17 1026.47 1026.62 1026.73 1026.76 1026.74 1026.91 1026.80 1026.62 1026.45
1018.47 1019.00 1019.40 1019.81 1020.28 1020.79 1021.05 1021.56 1022.00 1022.35 1022.78 1022.94 1023.32 1023.18 1022.84 1022.62 1022.81 1022.90 1022.95 1023.14 1023.21 1023.29 1023.50 1023.72 1023.96 1024.10 1024.19 1024.11 1024.15 1024.31 1024.47 1024.63 1025.10 1025.56 1025.93 1026.23 1026.43 1026.71 1026.42 1026.01 1026.43 1026.46 1026.37
1017.95 1018.41 1018.71 1019.22 1019.67 1020.23 1020.71 1021.17 1021.66 1022.11 1022.30 1022.59 1022.99 1023.53 1023.41 1022.82 1022.58 1022.49 1022.70 1022.89 1023.07 1023.11 1023.29 1023.51 1023.67 1023.79 1023.88 1024.00 1023.98 1023.97 1024.14 1024.35 1024.50 1025.06 1025.64 1026.32 1027.11 1027.05 1026.99 1026.90 1026.83 1026.29 1025.95
1017.31 1017.74 1018.20 1018.55 1019.06 1019.46 1020.00 1020.35 1020.90 1021.34 1021.75 1022.19 1022.16 1022.61 1023.38 1023.10 1022.91 1022.47 1022.34 1022.40 1022.60 1022.74 1022.62 1022.55 1022.62 1022.86 1023.21 1023.46 1023.63 1023.69 1023.75 1024.04 1024.47 1025.21 1025.70 1026.13 1026.58 1026.44 1026.65 1026.69 1026.72 1026.52 1026.41
1017.13 1017.50 1017.81 1018.11 1018.44 1018.90 1019.41 1019.68 1020.11 1020.62 1021.15 1021.62 1022.20 1022.03 1021.96 1021.94 1022.43 1022.52 1022.32 1022.10 1022.36 1022.69 1022.85 1023.03 1023.21 1023.21 1023.37 1023.63 1023.83 1023.93 1023.98 1024.34 1024.63 1024.76 1025.47 1025.94 1025.99 1026.01 1025.90 1026.04 1026.10 1026.02 1025.91
1016.88 1017.38 1017.38 1017.67 1018.04 1018.53 1018.78 1019.13 1019.58 1020.13 1020.42 1020.59 1020.94 1021.30 1021.71 1021.90 1022.07 1022.26 1022.10 1022.16 1022.43 1022.44 1022.63 1022.81 1022.71 1022.90 1023.10 1023.50 1023.71 1023.93 1024.03 1024.26 1024.58 1024.91 1025.13 1025.25 1025.42 1025.58 1025.23 1025.56 1025.51 1025.33 1025.27
1016.86 1016.80 1016.95 1017.23 1017.49 1017.79 1018.04 1018.39 1018.82 1019.33 1019.58 1019.84 1020.09 1020.42 1020.74 1021.04 1021.37 1021.75 1021.93 1021.98 1022.35 1022.68 1022.89 1023.25 1023.29 1023.30 1023.36 1023.31 1023.53 1023.62 1023.69 1024.03 1024.45 1024.67 1024.76 1025.08 1025.43 1025.40 1025.17 1025.09 1025.09 1025.12 1025.18
1016.61 1016.64 1016.86 1016.88 1017.13 1017.15 1017.42 1017.83 1018.28 1018.63 1018.96 1019.27 1019.54 1019.89 1020.12 1020.36 1020.53 1020.86 1021.14 1021.64 1022.16 1022.81 1023.24 1023.54 1023.66 1023.64 1023.59 1023.59 1023.68 1023.68 1023.82 1024.17 1024.33 1024.60 1024.76 1025.00 1025.21 1025.37 1025.42 1025.34 1025.23 1025.08 1025.28
1016.73 1016.66 1016.59 1016.47 1016.49 1016.64 1016.88 1017.21 1017.80 1018.19 1018.51 1018.83 1019.10 1019.52 1019.86 1020.16 1020.41 1020.68 1020.85 1021.33 1022.28 1022.82 1023.39 1023.63 1024.17 1023.99 1024.08 1023.91 1023.75 1023.95 1024.35 1024.34 1024.54 1024.88 1025.18 1025.32 1025.42 1025.55 1025.60 1025.64 1025.44 1025.45 1025.51
1016.85 1016.70 1016.52 1016.45 1016.42 1016.42 1016.53 1017.05 1017.40 1017.93 1018.35 1018.88 1019.26 1019.61 1020.00 1020.52 1020.55 1020.84 1020.90 1021.10 1021.52 1022.45 1023.18 1023.79 1024.28 1024.42 1024.39 1024.25 1024.15 1024.34 1024.66 1024.86 1024.93 1025.24 1025.36 1025.41 1025.53 1025.60 1025.60 1025.59 1025.58 1025.59 1025.67
1016.97 1016.96 1016.85 1016.78 1016.75 1016.68 1016.67 1016.94 1017.39 1017.97 1018.61 1019.30 1019.45 1019.61 1020.35 1020.86 1020.92 1021.11 1021.32 1021.09 1021.54 1022.09 1022.98 1023.74 1024.45 1024.77 1024.71 1024.61 1024.61 1024.74 1024.95 1025.15 1025.28 1025.39 1025.34 1025.39 1025.43 1025.50 1025.46 1025.49 1025.64 1025.59 1025.54
1017.23 1017.27 1017.31 1017.41 1017.33 1017.37 1017.34 1017.51 1017.93 1018.45 1018.95 1019.61 1019.95 1019.88 1020.59 1021.05 1021.30 1021.52 1021.72 1021.84 1022.18 1022.39 1023.01 1024.29 1024.56 1024.93 1025.02 1024.92 1024.90 1025.00 1025.10 1025.36 1025.50 1025.55 1025.51 1025.41 1025.43 1025.43 1025.42 1025.47 1025.52 1025.51 1025.45
1017.60 1017.67 1017.76 1017.82 1017.98 1017.99 1018.01 1018.12 1018.52 1018.88 1019.28 1019.84 1020.20 1020.29 1021.00 1021.18 1021.79 1022.06 1022.13 1022.52 1022.68 1022.72 1022.94 1024.02 1024.66 1024.98 1025.07 1025.07 1024.99 1025.22 1025.27 1025.35 1025.51 1025.59 1025.45 1025.39 1025.34 1025.41 1025.51 1025.52 1025.44 1025.38 1025.24
1018.10 1018.14 1018.29 1018.36 1018.54 1018.53 1018.63 1018.73 1019.03 1019.38 1019.77 1020.13 1020.48 1020.85 1021.27 1021.70 1022.22 1022.51 1022.67 1022.97 1023.01 1023.09 1023.13 1023.66 1024.74 1025.11 1025.30 1025.19 1025.32 1025.52 1025.79 1025.91 1025.75 1025.62 1025.62 1025.55 1025.50 1025.46 1025.50 1025.38 1025.16 1025.07 1025.04
1018.27 1018.35 1018.56 1018.75 1018.91 1019.11 1019.22 1019.28 1019.58 1019.99 1020.35 1020.78 1021.13 1021.26 1021.72 1022.15 1022.56 1022.87 1023.24 1023.36 1023.50 1023.58 1023.73 1024.30 1024.94 1025.35 1025.54 1025.80 1025.98 1026.32 1026.56 1026.48 1026.26 1025.89 1025.81 1025.62 1025.50 1025.50 1025.44 1025.23 1025.06 1024.98 1024.96
1018.55 1018.70 1018.78 1019.09 1019.14 1019.38 1019.60 1019.78 1020.15 1020.52 1021.12 1021.36 1021.54 1022.00 1022.32 1022.64 1022.92 1023.10 1023.57 1023.72 1023.82 1024.03 1024.44 1024.82 1025.47 1025.88 1026.19 1026.34 1026.53 1026.82 1026.92 1026.89 1026.55 1026.50 1026.24 1026.00 1025.84 1025.72 1025.52 1025.32 1025.23 1025.06 1024.90
1018.94 1019.07 1019.19 1019.39 1019.57 1019.82 1020.00 1020.36 1020.72 1021.03 1021.62 1021.85 1022.30 1022.80 1022.87 1023.13 1023.03 1023.22 1023.51 1023.86 1023.98 1024.45 1024.86 1025.18 1026.05 1026.36 1026.56 1026.66 1026.77 1026.96 1027.12 1027.17 1027.00 1026.56 1026.39 1025.98 1025.74 1025.56 1025.38 1025.33 1025.05 1024.67 1024.49
1019.42 1019.62 1019.73 1019.80 1020.15 1020.29 1020.72 1020.91 1021.33 1021.73 1022.21 1022.51 1022.91 1023.20 1023.63 1024.03 1024.12 1024.23 1024.03 1024.14 1024.11 1024.37 1024.63 1025.23 1025.89 1026.22 1026.42 1026.48 1026.59 1027.02 1027.23 1027.21 1027.03 1026.42 1026.46 1026.11 1025.86 1025.63 1025.18 1024.96 1024.61 1024.23 1024.08
1019.83 1020.15 1020.17 1020.31 1020.57 1020.86 1021.18 1021.57 1021.90 1022.36 1022.82 1023.27 1023.49 1024.00 1024.24 1024.28 1024.34 1024.53 1024.66 1024.90 1025.18 1025.35 1025.36 1025.50 1025.79 1025.99 1026.02 1026.16 1026.36 1026.60 1026.91 1027.07 1026.82 1026.49 1026.53 1026.73 1026.08 1025.66 1025.02 1024.76 1024.29 1023.94 1023.73
1020.39 1020.52 1020.59 1020.78 1021.06 1021.34 1021.62 1021.92 1022.34 1022.85 1023.37 1023.80 1024.14 1024.55 1024.32 1024.21 1024.02 1024.42 1024.92 1025.36 1025.56 1025.68 1025.54 1025.44 1025.52 1025.41 1025.37 1025.32 1025.82 1026.57 1026.95 1027.22 1027.10 1026.70 1026.70 1026.73 1026.35 1025.86 1025.12 1024.81 1024.40 1024.08 1023.97
1020.76 1020.94 1021.22 1021.43 1021.65 1021.90 1021.90 1022.20 1022.67 1023.07 1023.64 1024.10 1024.51 1024.33 1023.97 1024.24 1024.18 1024.60 1025.11 1025.45 1025.62 1025.81 1025.91 1026.01 1026.12 1026.04 1026.02 1025.72 1025.99 1026.39 1026.95 1027.43 1027.48 1027.11 1026.70 1026.75 1026.58 1026.26 1025.76 1025.03 1024.54 1024.12 1024.05
Thickness
5694 5691 5689 5685 5682 5680 5677 5676 5675 5673 5672 5670 5669 5666 5664 5661 5660 5658 5656 5653 5651 5648 5645 5641 5638 5635 5632 5628 5625 5622 5619 5616 5614 5612 5610 5607 5607 5604 5603 5603 5603 5603 5602
5690 5688 5685 5682 5679 5677 5674 5673 5672 5670 5668 5667 5666 5664 5661 5660 5658 5655 5652 5649 5646 5643 5639 5636 5633 5629 5626 5622 5618 5614 5611 5608 5605 5603 5603 5601 5598 5596 5596 5594 5594 5595 5595
5687 5685 5682 5679 5677 5674 5671 5669 5668 5666 5663 5662 5661 5660 5658 5656 5654 5652 5649 5645 5642 5638 5634 5631 5627 5624 5620 5616 5612 5608 5605 5601 5599 5597 5595 5593 5591 5590 5588 5587 5587 5586 5586
5684 5682 5679 5677 5675 5671 5668 5667 5665 5662 5659 5658 5657 5657 5655 5653 5650 5648 5644 5640 5637 5634 5630 5626 5623 5619 5614 5610 5607 5603 5599 5595 5592 5589 5587 5585 5583 5581 5580 5579 5579 5579 5579
5682 5680 5678 5676 5672 5669 5667 5664 5661 5658 5656 5655 5654 5653 5652 5649 5646 5642 5639 5636 5633 5629 5625 5621 5617 5613 5609 5604 5601 5598 5594 5589 5584 5580 5578 5576 5575 5572 5570 5569 5569 5569 5570
5680 5677 5676 5673 5670 5666 5663 5660 5658 5655 5652 5650 5650 5649 5648 5646 5642 5638 5635 5632 5629 5625 5621 5617 5613 5609 5605 5601 5597 5593 5589 5585 5579 5572 5569 5567 5564 5561 5559 5556 5556 5558 5558
5678 5675 5672 5670 5668 5664 5662 5658 5654 5651 5647 5644 5642 5641 5643 5642 5638 5635 5632 5628 5624 5621 5616 5612 5607 5603 5598 5594 5590 5586 5581 5577 5574 5569 5564 5559 5554 5548 5550 5552 5547 5546 5546
5675 5672 5671 5669 5666 5661 5657 5654 5650 5647 5645 5640 5637 5630 5633 5636 5635 5632 5628 5623 5619 5615 5610 5606 5602 5598 5594 5589 5585 5580 5575 5570 5565 5561 5555 5549 5540 5534 5534 5535 5533 5535 5537
5673 5672 5669 5667 5663 5660 5657 5654 5649 5647 5642 5637 5636 5632 5622 5625 5622 5626 5624 5619 5615 5611 5609 5605 5602 5597 5591 5585 5580 5575 5570 5563 5556 5548 5541 5535 5532 5528 5524 5522 5519 5520 5520
5669 5667 5665 5664 5662 5659 5655 5652 5649 5644 5639 5635 5628 5628 5628 5628 5621 5620 5618 5616 5609 5604 5599 5594 5590 5586 5581 5575 5569 5564 5558 5551 5543 5538 5525 5520 5519 5517 5516 5513 5510 5510 5510
5660 5659 5659 5659 5658 5654 5653 5648 5643 5639 5638 5636 5631 5626 5622 5617 5614 5611 5614 5611 5601 5597 5593 5589 5586 5581 5575 5567 5562 5555 5549 5541 5531 5525 5519 5513 5510 5507 5507 5501 5503 5502 5503
5654 5655 5656 5654 5652 5650 5648 5645 5642 5639 5637 5634 5631 5626 5621 5616 5609 5604 5603 5604 5599 5591 5583 5579 5574 5571 5565 5560 5554 5548 5541 5533 5524 5516 5511 5504 5498 5496 5495 5494 5493 5493 5495
5649 5649 5648 5649 5647 5647 5646 5643 5639 5637 5633 5631 5627 5622 5618 5613 5609 5604 5602 5596 5591 5580 5575 5569 5564 5559 5555 5550 5545 5539 5532 5524 5517 5508 5502 5496 5491 5489 5487 5485 5484 5484 5482
5640 5642 5643 5645 5646 5645 5643 5639 5635 5633 5630 5625 5622 5617 5612 5606 5602 5597 5595 5590 5578 5573 5565 5563 5552 5548 5543 5540 5536 5528 5520 5515 5508 5499 5492 5486 5483 5480 5478 5475 5475 5473 5471
5631 5633 5635 5638 5638 5637 5636 5633 5631 5626 5621 5615 5610 5605 5601 5594 5591 5587 5584 5581 5579 5572 5565 5551 5544 5536 5532 5529 5524 5518 5511 5504 5498 5490 5484 5480 5476 5473 5469 5467 5464 5461 5458
5619 5621 5624 5625 5625 5626 5626 5624 5620 5615 5609 5602 5599 5596 5588 5582 5580 5576 5572 5572 5567 5564 5559 5542 5532 5525 5521 5518 5512 5507 5501 5495 5489 5482 5478 5474 5470 5466 5462 5459 5455 5453 5452
5606 5608 5609 5609 5610 5610 5610 5609 5605 5601 5596 5589 5586 5585 5577 5572 5568 5564 5561 5557 5553 5549 5544 5527 5522 5515 5510 5506 5503 5497 5492 5485 5480 5475 5470 5466 5462 5458 5455 5451 5448 5445 5444
5593 5594 5595 5595 5594 5595 5596 5595 5591 5588 5585 5579 5575 5573 5566 5563 5556 5551 5549 5544 5540 5537 5534 5522 5512 5505 5501 5496 5493 5487 5481 5475 5471 5466 5461 5457 5454 5450 5446 5442 5440 5438 5436
5578 5580 5581 5582 5580 5581 5581 5580 5578 5575 5571 5567 5564 5560 5555 5549 5544 5539 5537 5532 5529 5526 5523 5515 5501 5495 5490 5486 5482 5475 5469 5465 5462 5458 5453 5449 5445 5441 5436 5434 5432 5429 5426
5567 5568 5568 5568 5568 5567 5566 5566 5563 5560 5556 5553 5549 5547 5541 5537 5531 5528 5523 5520 5517 5513 5509 5500 5491 5485 5480 5474 5469 5463 5457 5454 5451 5448 5444 5440 5436 5431 5428 5425 5422 5420 5417
5555 5555 5556 5555 5556 5555 5553 5552 5548 5546 5541 5538 5536 5531 5527 5524 5520 5517 5511 5507 5504 5498 5490 5483 5476 5471 5463 5462 5458 5451 5446 5442 5440 5436 5433 5430 5425 5422 5419 5416 5412 5409 5406
5541 5542 5543 5543 5542 5541 5540 5537 5534 5533 5527 5525 5521 5516 5514 5511 5510 5506 5502 5497 5492 5485 5478 5470 5461 5462 5456 5452 5447 5442 5434 5427 5423 5425 5420 5418 5415 5413 5410 5406 5402 5400 5397
5526 5527 5528 5530 5528 5528 5524 5523 5520 5516 5513 5511 5509 5506 5502 5497 5495 5493 5489 5486 5482 5476 5472 5465 5459 5454 5449 5445 5438 5431 5426 5416 5411 5414 5408 5407 5403 5400 5400 5397 5394 5392 5389
5513 5513 5515 5516 5514 5513 5509 5507 5506 5502 5500 5497 5496 5492 5489 5486 5485 5481 5476 5472 5467 5463 5460 5456 5452 5447 5443 5438 5432 5424 5416 5410 5407 5403 5397 5385 5389 5387 5389 5387 5384 5382 5378
5499 5499 5501 5501 5501 5499 5497 5495 5494 5491 5488 5485 5484 5480 5481 5479 5477 5472 5466 5461 5456 5453 5450 5447 5443 5440 5436 5431 5424 5415 5406 5396 5393 5391 5383 5376 5374 5373 5376 5374 5372 5368 5364
5488 5489 5488 5488 5487 5485 5486 5485 5483 5482 5479 5476 5473 5473 5473 5470 5467 5462 5456 5451 5447 5444 5440 5437 5433 5429 5424 5420 5413 5406 5396 5381 5374 5372 5371 5363 5360 5359 5355 5359 5357 5356 5352